Regional Weather Roundup
Issued by NWS

Home | Current Version | Previous Version | Graphics & Text | Print | Product List | Glossary On
Versions: 1 2 3 4 5 6 7 8 9 10 11 12 13 14 15 16 17 18 19 20 21 22 23 24 25 26 27 28 29 30 31 32 33 34 35 36 37 38 39 40 41 42 43 44 45 46 47 48 49 50
000
ASUS43 KMPX 020510
RWRMN
WEATHER ROUNDUP FOR MINNESOTA
NATIONAL WEATHER SERVICE TWIN CITIES/CHANHASSEN MN
1200 AM CDT WED SEP 02 2015


NOTE: "FAIR" INDICATES FEW OR NO CLOUDS BELOW 12,000 FEET WITH NO
SIGNIFICANT WEATHER AND/OR OBSTRUCTIONS TO VISIBILITY. N/A MEANS
CURRENT SKY AND/OR WEATHER CONDITIONS ARE NOT AVAILABLE.

MNZ060>063-068>070-020600-
   Twin Cities Metro

CITY           SKY/WX    TMP DP  RH WIND       PRES   REMARKS
TWIN CITIES    CLOUDY    77  72  84 S5        29.92F
ST PAUL        PTCLDY    74  73  97 SE3       29.92S FOG
CRYSTAL        MOCLDY    78  72  81 SE3       29.90F
BLAINE         MOCLDY    75  73  94 CALM      29.92S
LAKEVILLE        N/A     70  70 100 CALM      29.94S FOG
EDEN PRAIRIE   MOCLDY    76  72  87 S6        29.92S
SOUTH ST PAUL  PTCLDY    75  73  92 CALM      29.92S
LAKE ELMO      FAIR      73  72  94 S5        29.94S
$$
MNZ001>005-007-008-013>017-022>024-027-028-020600-
   Northwest Minnesota

CITY           SKY/WX    TMP DP  RH WIND       PRES   REMARKS
BEMIDJI        CLEAR     66  58  77 SE5       29.90F
HALLOCK        CLEAR     68  54  60 SE8       29.83F
ROSEAU         CLEAR     63  55  77 S6        29.88S
WARROAD        CLEAR     66  57  72 S3        29.89S
THIEF RVR FALL CLEAR     66  57  72 SE7       29.87S
CROOKSTON      CLEAR     70  61  73 SE7       29.84F
FOSSTON        CLEAR     70  57  64 SE7       29.88F
DETROIT LAKES  CLEAR     68  66  94 SE6       29.90S
MOORHEAD       FAIR      72  70  94 SE8       29.85F
PARK RAPIDS    CLEAR     71  63  75 E5        29.89F
MAHNOMEN       FAIR      69  63  81 SE5       29.87S
$$
MNZ006-009>011-018-025>026-020600-
   North Central Minnesota

CITY           SKY/WX    TMP DP  RH WIND       PRES   REMARKS
BAUDETTE       CLEAR     62  55  77 SE3       29.90F
FLAG ISLAND    CLEAR     70  64  83 S5        29.88S
INTL FALLS     CLEAR     53  52  96 CALM      29.93S
WASKISH        CLEAR     61  55  82 SE3       29.91F
BIG FORK       PTCLDY    55  55 100 CALM      29.94F
LONGVILLE      PTCLDY    63  61  94 CALM      29.92S
GRAND RAPIDS     N/A     64  57  77 SE5       29.94F
CRANE LAKE     PTCLDY    54  54 100 CALM      29.96S
ORR            PTCLDY    59  55  88 CALM      29.93S
COOK           PTCLDY    57  55  94 CALM      29.96S
WALKER         FAIR      65  63  93 E5        29.90F
$$
MNZ012-019>021-037-020600-
   Northeast Minnesota

CITY           SKY/WX    TMP DP  RH WIND       PRES   REMARKS
DULUTH         PTCLDY    68  66  93 CALM      29.95F
ELY            MOCLDY    55  54  94 CALM      29.96S
HIBBING        MOCLDY    60  58  92 CALM      29.95F
EVELETH        MOCLDY    59  59 100 CALM      29.97S
DULUTH HARBOR  PTCLDY    66  64  94 NE7       29.92F FOG
TWO HARBORS    PTCLDY    64  61  88 CALM      29.93S
SILVER BAY     PTCLDY    61  57  88 CALM      29.93S
GRAND MARAIS     N/A     56  55  97 CALM      29.93S
G MARAIS ARPRT MOCLDY    54  50  87 CALM      29.99F
$$
MNZ029>031-032-039>041-046>048-054>057-064-020600-
   West Central Minnesota

CITY           SKY/WX    TMP DP  RH WIND       PRES   REMARKS
FERGUS FALLS   CLEAR     72  72 100 SE7       29.87S
WHEATON        CLEAR     63  61  94 SE5       29.88R FOG
MORRIS           N/A     70  70 100 SE3       29.87F FOG
ALEXANDRIA     PTCLDY    70  68  93 SE5       29.91F
ELBOW LAKE     FAIR      71  69  96 SE6       29.87F
WADENA         CLEAR     66  64  94 S5        29.91R FOG
GLENWOOD       MOCLDY    70  68  94 E3        29.91S FOG
APPLETON       MOCLDY    73  66  78 S8        29.88S
BENSON         MOCLDY    72  70  94 S3        29.89F FOG
ORTONVILLE     PTCLDY    72  68  88 SE7       29.87S
MADISON        RAIN      70  63  78 S17G23    29.88F
WILLMAR        LGT RAIN  75  73  94 SE6       29.91F
$$
MNZ033>034-036-042>043-049>051-058-059-020600-
   Central Minnesota

CITY           SKY/WX    TMP DP  RH WIND       PRES   REMARKS
ST CLOUD       LGT RAIN  70  69  97 E5        29.89F
SAUK CENTRE    FAIR      71  69  92 SE3       29.91F
PAYNESVILLE    CLOUDY    74  72  91 E7        29.91S
AITKIN         MOCLDY    72  64  78 CALM      29.91F HAZE
PINE RIVER     PTCLDY    68  66  94 CALM      29.94S
BRAINERD       CLOUDY    73  69  87 SE6       29.90F
STAPLES        PTCLDY    70  66  88 S7        29.92R
LONG PRAIRIE   FAIR      70  68  94 CALM      29.92F
LITTLE FALLS   CLOUDY    72  64  78 CALM      29.92R
LITCHFIELD     CLOUDY    75  75 100 SE5       29.92S
BUFFALO        CLOUDY    76  73  88 SE5       29.92S
MAPLE LAKE     CLOUDY    76  74  93 S5        29.92R
$$
MNZ037-044-045-052-053-020600-
   East Central Minnesota

CITY           SKY/WX    TMP DP  RH WIND       PRES   REMARKS
PRINCETON      CLOUDY    75  73  94 SE3       29.90F FOG
MORA           CLOUDY    72  70  94 NE5       29.92F FOG
CAMBRIDGE      CLOUDY    79  68  69 SE3       29.90S
RUSH CITY      CLOUDY    73  71  93 CALM      29.91F
MOOSE LAKE     CLOUDY    70  68  94 CALM      29.92S FOG
HINCKLEY       FAIR      72  72 100 CALM      29.92F FOG
CLOQUET        MOCLDY    70  66  88 CALM      29.95S
MCGREGOR       CLOUDY    70  68  94 CALM      29.94S
$$
MNZ071>073-080-081-089-090-097-098-020600-
   Southwest Minnesota

CITY           SKY/WX    TMP DP  RH WIND       PRES   REMARKS
MONTEVIDEO     CLOUDY    72  68  88 SW13G22   29.93R
GRANITE FALLS  TSTM      68  65  91 S10G17    29.92F
CANBY          LGT RAIN  67  64  87 E10G22    29.92R
MARSHALL       CLOUDY    66  59  77 E14G21    29.93S THUNDER
REDWOOD FALLS  TSTM      72  65  78 SE12G25   29.89S
OLIVIA         CLOUDY    72  70  94 S9        29.92R
PIPESTONE      PTCLDY    68  64  88 SE7       29.90F
WINDOM         TSTM      72  66  83 CALM      29.92F
WORTHINGTON    CLOUDY    73  70  88 SW7       29.90S
JACKSON        CLOUDY    77  70  78 S14       29.91F
TRACY          CLOUDY    67  64  87 SE7       29.91F THUNDER
SLAYTON        RAIN      66  65  96 NE6       29.92F
$$
MNZ065>067-074>077-082>085-091>093-020600-
   South Central Minnesota

CITY           SKY/WX    TMP DP  RH WIND       PRES   REMARKS
MANKATO        MOCLDY    73  70  88 SE3       29.94S
NEW ULM        LGT RAIN  75  73  94 E3        29.93S
ST JAMES       MOCLDY    73  73 100 E5        29.93S
FAIRMONT       PTCLDY    73  66  78 S10       29.91F
GLENCOE        CLOUDY    75  73  95 CALM      29.93R
FARIBAULT      PTCLDY    72  70  94 CALM      29.95S
OWATONNA       PTCLDY    73  70  88 S6        29.95F
WASECA         PTCLDY    72  68  88 CALM      29.96S
ALBERT LEA     PTCLDY    75  72  88 S7        29.96S
$$
MNZ078>079-086>088-094>096-020600-
   Southeast Minnesota

CITY           SKY/WX    TMP DP  RH WIND       PRES   REMARKS
ROCHESTER      PTCLDY    72  70  93 S9        29.98R FOG
RED WING       CLEAR     72  70  94 SE3       29.93S FOG
STANTON          N/A     69  67  93 CALM      29.93S FOG
DODGE CENTER   PTCLDY    75  72  88 S10       29.97S
WINONA         PTCLDY    77  72  83 CALM      29.95S
AUSTIN         PTCLDY    75  72  88 S5        29.97S
PRESTON        CLEAR     74  70  89 SW5       29.99S
$$
ABBREVIATIONS USED IN REMARKS
   TC - TEMPERATURES IN CELSIUS
  WCI - WIND CHILL INDEX
   HX - HEAT INDEX
  VSB - VISIBILITY
$$


USA.gov is the U.S. government's official web portal to all federal, state and local government web resources and services.